FW7665 Weather Reports


Display with metric or nautical units.
time (UTC)temp
F
wind
direction
speed
MPH
gust
MPH
rain 1hr
in
rain 24hr
in
rain mn
in
humidity
%
barometer
mb
20210618080404 52 0 0.0 0.0 0.00 0.02 0.00 66 1026.8
20210618075503 52 132 0.0 1.0 0.00 0.02 0.00 67 1026.8
20210618074604 52 0 0.0 0.0 0.00 0.02 0.00 71 1026.8
20210618073704 52 0 0.0 0.0 0.00 0.02 0.00 72 1026.8
20210618072803 52 132 0.0 1.0 0.00 0.02 0.00 69 1026.8
20210618071904 52 132 0.0 1.0 0.00 0.02 0.00 70 1026.8
20210618071004 52 132 0.0 1.0 0.00 0.02 0.00 67 1026.8
20210618070103 52 0 0.0 0.0 0.00 0.02 0.00 69 1026.8
20210618065203 52 132 0.0 2.0 0.00 0.02 0.00 68 1026.8
20210618064303 52 132 0.0 2.0 0.00 0.02 0.00 69 1026.8
20210618063403 53 0 0.0 0.0 0.00 0.02 0.00 69 1026.8
20210618062503 52 0 0.0 0.0 0.00 0.02 0.00 68 1026.8
20210618061603 53 132 0.0 1.0 0.00 0.02 0.00 70 1026.8
20210618060703 53 132 0.0 2.0 0.00 0.02 0.00 69 1026.8
20210618055803 53 132 0.0 2.0 0.00 0.02 0.02 69 1026.8
20210618054903 53 0 0.0 0.0 0.00 0.02 0.02 69 1026.8
20210618054003 53 0 0.0 0.0 0.00 0.02 0.02 69 1026.8
20210618053103 53 0 0.0 0.0 0.00 0.02 0.02 69 1026.8
20210618052203 54 0 0.0 0.0 0.00 0.02 0.02 69 1026.8
20210618051303 54 0 0.0 0.0 0.00 0.02 0.02 69 1026.8
20210618050403 54 132 0.0 1.0 0.00 0.02 0.02 70 1026.8
20210618045503 54 0 0.0 0.0 0.00 0.02 0.02 68 1026.8
20210618044603 54 0 0.0 0.0 0.00 0.02 0.02 67 1026.8
20210618043703 55 0 0.0 0.0 0.00 0.02 0.02 67 1026.8
20210618042803 55 0 0.0 0.0 0.00 0.02 0.02 69 1026.8
20210618041903 56 0 0.0 0.0 0.00 0.02 0.02 68 1026.8
20210618041003 56 0 0.0 0.0 0.00 0.02 0.02 69 1026.8
20210618040103 56 0 0.0 0.0 0.00 0.02 0.02 71 1026.8
20210618035203 56 0 0.0 0.0 0.00 0.02 0.02 70 1026.8
20210618034303 56 0 0.0 0.0 0.00 0.02 0.02 70 1026.8
20210618033403 57 0 0.0 0.0 0.00 0.02 0.02 70 1026.8
20210618032503 58 0 0.0 0.0 0.00 0.02 0.02 72 1026.8
20210618031602 58 0 0.0 0.0 0.00 0.02 0.02 73 1026.8
20210618030702 59 0 0.0 0.0 0.00 0.02 0.02 72 1026.8
20210618025802 59 0 0.0 0.0 0.00 0.02 0.02 72 1026.8
20210618024902 60 0 0.0 0.0 0.00 0.02 0.02 74 1026.8
20210618024003 60 0 0.0 0.0 0.00 0.02 0.02 75 1026.8
20210618023102 61 0 0.0 0.0 0.00 0.02 0.02 75 1026.8
20210618022202 61 0 0.0 0.0 0.00 0.02 0.02 75 1026.8
20210618021302 61 0 0.0 0.0 0.00 0.02 0.02 73 1026.8
20210618020402 62 0 0.0 0.0 0.00 0.02 0.02 72 1026.8
20210618015502 63 0 0.0 0.0 0.00 0.02 0.02 73 1026.8
20210618014602 63 0 0.0 0.0 0.00 0.02 0.02 75 1026.8
20210618013702 63 0 0.0 0.0 0.00 0.02 0.02 78 1026.8
20210618012802 63 0 0.0 0.0 0.00 0.02 0.02 79 1026.8
20210618011902 63 0 0.0 0.0 0.00 0.02 0.02 78 1026.8
20210618011002 63 0 0.0 0.0 0.00 0.02 0.02 76 1026.8
20210618010102 64 0 0.0 0.0 0.00 0.02 0.02 76 1026.8
20210618005202 64 0 0.0 0.0 0.00 0.02 0.02 76 1026.8
20210618004302 64 0 0.0 0.0 0.01 0.02 0.02 78 1026.8
20210618003402 64 0 0.0 0.0 0.02 0.02 0.02 79 1026.8
20210618002502 63 0 0.0 0.0 0.02 0.02 0.02 79 1026.8
20210618001602 63 0 0.0 0.0 0.02 0.02 0.02 80 1026.8
20210618000702 63 132 0.0 1.0 0.02 0.02 0.02 79 1026.8
20210617235802 64 132 0.0 2.0 0.02 0.02 0.02 75 1026.8
20210617234902 69 122 2.0 6.0 0.02 0.02 0.02 56 1026.8
20210617234002 79 118 2.0 4.0 0.01 0.01 0.01 42 1026.8
20210617233102 81 114 2.0 4.0 0.00 0.00 0.00 24 1026.8
20210617232202 82 99 2.0 4.0 0.00 0.00 0.00 23 1026.8
20210617231302 80 116 2.0 4.0 0.00 0.00 0.00 23 1026.8
20210617230402 81 109 2.0 4.0 0.00 0.00 0.00 24 1026.8
20210617225502 82 88 2.0 4.0 0.00 0.00 0.00 22 1026.8
20210617224602 82 103 2.0 4.0 0.00 0.00 0.00 22 1026.8
20210617223702 81 68 2.0 3.0 0.00 0.00 0.00 24 1026.8
20210617222801 81 91 2.0 3.0 0.00 0.00 0.00 26 1026.8
20210617221901 82 118 2.0 5.0 0.00 0.00 0.00 25 1026.8
20210617221001 80 117 1.0 3.0 0.00 0.00 0.00 31 1026.8
20210617220101 80 155 1.0 5.0 0.00 0.00 0.00 33 1026.8
20210617215201 81 0 0.0 0.0 0.00 0.00 0.00 30 1026.8
20210617214301 82 103 2.0 6.0 0.00 0.00 0.00 27 1026.8
20210617213401 80 104 1.0 4.0 0.00 0.00 0.00 24 1026.8
20210617212501 83 93 2.0 6.0 0.00 0.00 0.00 22 1026.8
20210617211601 81 111 1.0 3.0 0.00 0.00 0.00 24 1026.8
20210617210701 83 117 0.0 3.0 0.00 0.00 0.00 25 1026.8
20210617205801 84 91 1.0 5.0 0.00 0.00 0.00 21 1026.8
20210617204901 86 81 2.0 5.0 0.00 0.00 0.00 18 1026.8
20210617204001 86 79 2.0 5.0 0.00 0.00 0.00 17 1026.8
20210617203101 85 103 2.0 4.0 0.00 0.00 0.00 21 1026.8
20210617202201 84 131 2.0 5.0 0.00 0.00 0.00 21 1026.8
20210617201301 86 100 1.0 4.0 0.00 0.00 0.00 19 1026.8
20210617200401 89 76 3.0 7.0 0.00 0.00 0.00 15 1026.8
20210617195501 89 74 2.0 5.0 0.00 0.00 0.00 15 1026.8
20210617194601 88 70 2.0 7.0 0.00 0.00 0.00 17 1026.8
20210617193701 89 80 1.0 6.0 0.00 0.00 0.00 15 1026.8
20210617192801 90 55 1.0 4.0 0.00 0.00 0.00 13 1026.8
20210617191901 90 240 2.0 4.0 0.00 0.00 0.00 14 1026.8
20210617191001 89 291 3.0 8.0 0.00 0.00 0.00 16 1026.8
20210617190101 87 274 1.0 7.0 0.00 0.00 0.00 16 1026.8
20210617185201 85 241 1.0 4.0 0.00 0.00 0.00 17 1026.8
20210617184301 88 255 2.0 5.0 0.00 0.00 0.00 15 1026.8
20210617183401 94 237 2.0 7.0 0.00 0.00 0.00 13 1026.8
20210617182501 92 289 2.0 7.0 0.00 0.00 0.00 13 1026.8
20210617181601 91 305 2.0 5.0 0.00 0.00 0.00 15 1026.8
20210617180701 91 317 1.0 5.0 0.00 0.00 0.00 14 1026.8
20210617175800 91 351 3.0 6.0 0.00 0.00 0.00 13 1026.8
20210617174900 92 322 2.0 6.0 0.00 0.00 0.00 13 1026.8
20210617174001 89 314 3.0 9.0 0.00 0.00 0.00 14 1026.8
20210617173101 90 71 2.0 9.0 0.00 0.00 0.00 17 1026.8
20210617172200 90 77 2.0 7.0 0.00 0.00 0.00 13 1026.8
20210617171301 89 60 2.0 6.0 0.00 0.00 0.00 12 1026.8
20210617170400 88 70 2.0 7.0 0.00 0.00 0.00 13 1026.8
20210617165500 86 57 2.0 5.0 0.00 0.00 0.00 16 1026.8
20210617164600 84 101 1.0 4.0 0.00 0.00 0.00 14 1026.8
20210617163700 82 174 2.0 6.0 0.00 0.00 0.00 22 1026.8
20210617162800 81 55 2.0 8.0 0.00 0.00 0.00 17 1026.8
20210617161900 80 71 1.0 5.0 0.00 0.00 0.00 20 1026.8
20210617161000 78 55 2.0 7.0 0.00 0.00 0.00 19 1026.8
20210617160100 75 342 2.0 6.0 0.00 0.00 0.00 20 1026.8
20210617155200 72 335 2.0 7.0 0.00 0.00 0.00 24 1026.8
20210617154300 68 0 0.0 0.0 0.00 0.00 0.00 48 1026.8
20210617153400 65 0 0.0 0.0 0.00 0.00 0.00 58 1026.8
20210617152500 63 0 0.0 0.0 0.00 0.00 0.00 62 1026.8
20210617151600 61 0 0.0 0.0 0.00 0.00 0.00 65 1026.8
20210617150700 59 0 0.0 0.0 0.00 0.00 0.00 63 1026.8
20210617145800 57 0 0.0 0.0 0.00 0.00 0.00 71 1026.8
20210617144900 56 0 0.0 0.0 0.00 0.00 0.00 71 1026.8
20210617144000 54 0 0.0 0.0 0.00 0.00 0.00 75 1026.8
20210617143100 54 0 0.0 0.0 0.00 0.00 0.00 74 1026.8
20210617142200 52 0 0.0 0.0 0.00 0.00 0.00 75 1026.8
20210617141300 51 0 0.0 0.0 0.00 0.00 0.00 76 1026.8
20210617140400 51 0 0.0 0.0 0.00 0.00 0.00 75 1026.8
20210617135500 50 0 0.0 0.0 0.00 0.00 0.00 76 1026.8
20210617134600 49 0 0.0 0.0 0.00 0.00 0.00 76 1026.8
20210617133659 49 0 0.0 0.0 0.00 0.00 0.00 76 1026.8
20210617132800 48 0 0.0 0.0 0.00 0.00 0.00 75 1026.8
20210617131859 48 0 0.0 0.0 0.00 0.00 0.00 75 1026.8
20210617130959 48 0 0.0 0.0 0.00 0.00 0.00 73 1026.8
20210617130100 48 0 0.0 0.0 0.00 0.00 0.00 72 1026.8
20210617125159 48 0 0.0 0.0 0.00 0.00 0.00 71 1026.8
20210617124259 48 0 0.0 0.0 0.00 0.00 0.00 69 1026.8
20210617123359 48 120 0.0 1.0 0.00 0.00 0.00 69 1026.8
20210617122459 48 120 0.0 1.0 0.00 0.00 0.00 68 1026.8
20210617121600 48 0 0.0 0.0 0.00 0.00 0.00 68 1026.8
20210617120700 48 0 0.0 0.0 0.00 0.00 0.00 67 1026.8
20210617115759 48 0 0.0 0.0 0.00 0.00 0.00 67 1026.8
20210617114859 48 0 0.0 0.0 0.00 0.00 0.00 66 1026.8
20210617113959 49 0 0.0 0.0 0.00 0.00 0.00 64 1026.8
20210617113059 49 0 0.0 0.0 0.00 0.00 0.00 64 1026.8
20210617112159 49 0 0.0 0.0 0.00 0.00 0.00 65 1026.8
20210617111259 49 0 0.0 0.0 0.00 0.00 0.00 64 1026.8
20210617110359 50 0 0.0 0.0 0.00 0.00 0.00 64 1026.8
20210617105459 50 0 0.0 0.0 0.00 0.00 0.00 65 1026.8
20210617104559 50 0 0.0 0.0 0.00 0.00 0.00 66 1026.8
20210617103659 50 0 0.0 0.0 0.00 0.00 0.00 63 1026.8
20210617102759 50 0 0.0 0.0 0.00 0.00 0.00 65 1026.8
20210617101859 50 0 0.0 0.0 0.00 0.00 0.00 66 1026.8
20210617100959 50 0 0.0 0.0 0.00 0.00 0.00 65 1026.8
20210617100059 50 0 0.0 0.0 0.00 0.00 0.00 65 1026.8
20210617095159 50 120 0.0 1.0 0.00 0.00 0.00 63 1026.8
20210617094259 50 120 0.0 1.0 0.00 0.00 0.00 64 1026.8
20210617093359 50 0 0.0 0.0 0.00 0.00 0.00 65 1026.8
20210617092459 51 0 0.0 0.0 0.00 0.00 0.00 63 1026.8
20210617091559 51 0 0.0 0.0 0.00 0.00 0.00 62 1026.8
20210617090659 51 0 0.0 0.0 0.00 0.00 0.00 63 1026.8
20210617085759 51 0 0.0 0.0 0.00 0.00 0.00 62 1026.8
20210617084859 51 120 0.0 1.0 0.00 0.00 0.00 62 1026.8
20210617083959 51 0 0.0 0.0 0.00 0.00 0.00 62 1026.8
20210617083058 52 0 0.0 0.0 0.00 0.00 0.00 62 1026.8
20210617082159 52 120 0.0 1.0 0.00 0.00 0.00 60 1026.8
20210617081259 52 0 0.0 0.0 0.00 0.00 0.00 63 1026.8